Regional Weather Roundup
Issued by NWS

Home | Current Version | Previous Version | Graphics & Text | Print | Product List | Glossary On
Versions: 1 2 3 4 5 6 7 8 9 10 11 12 13 14 15 16 17 18 19 20 21 22 23 24 25 26 27 28 29 30 31 32 33 34 35 36 37 38 39 40 41 42 43 44 45 46 47 48 49 50
000
ASUS43 KBIS 050110
RWRND

NORTH DAKOTA REGIONAL WEATHER ROUNDUP
NATIONAL WEATHER SERVICE BISMARCK ND
800 PM CDT WED MAY 04 2016

NOTE: "FAIR" INDICATES FEW OR NO CLOUDS BELOW 12,000 FEET WITH NO
SIGNIFICANT WEATHER AND/OR OBSTRUCTIONS TO VISIBILITY.


NDZ001>003-009>011-017-050200-
NORTHWEST NORTH DAKOTA

CITY           SKY/WX    TMP DP  RH WIND       PRES   REMARKS
WILLISTON      SUNNY     81  37  20 SW7       29.86F
MINOT          CLEAR     84  37  18 SW9       29.87F
MINOT AFB      CLEAR     81  40  22 SW9       29.85F
$$

NDZ018>021-031>035-040>046-050200-
SOUTHWEST NORTH DAKOTA

CITY           SKY/WX    TMP DP  RH WIND       PRES   REMARKS
BISMARCK       CLEAR     73  47  39 S12       29.94F
DICKINSON      CLEAR     74  37  26 SW9       29.93F
GARRISON         N/A     79  42  26 SE6       29.90F
HETTINGER ARPT CLEAR     71  43  36 S8        29.99F
$$

NDZ004>008-012>016-024-026-027-054-050200-
NORTHEAST NORTH DAKOTA

CITY           SKY/WX    TMP DP  RH WIND       PRES   REMARKS
GRAND FORKS    MOCLDY    69  33  26 E6        29.94F
GRND FRKS AFB  CLEAR     68  32  26 SE6       29.95F
DEVILS LAKE    PTCLDY    66  45  46 SE7       29.93F
$$

NDZ022-023-025-028>030-036>039-047>053-050200-
SOUTHEAST NORTH DAKOTA

CITY           SKY/WX    TMP DP  RH WIND       PRES   REMARKS
FARGO          CLEAR     70  24  17 N5        29.96F
JAMESTOWN      CLEAR     71  38  29 W5        29.96F
$$




USA.gov is the U.S. government's official web portal to all federal, state and local government web resources and services.